Location: Prague
(50.0830°N, 14.4670°E)
Time: 06:58:33
(UTC+02:00)

Envisat - Pass Details

Date: 30 September 2021
Orbit: 764 x 766 km, 98.2° (Epoch: 26 October)

Event Time Altitude Azimuth Distance (km) Brightness Sun altitude
Rises 04:30:54 0° 33° (NNE) 3,242 7.2 -24.1°
Drops below altitude 10° 04:36:28 10° 83° (E) 2,309 6.5 -23.3°
Maximum altitude 04:36:28 10° 83° (E) 2,309 6.5 -23.3°
Sets 04:42:00 0° 132° (SE) 3,221 6.5 -22.5°
